STARLINK-1357, 45565

Orbit data source: Space-Track

STARLINK-1357, 45565 is a payload satellite owned by SpaceX/Seattle (US) in LEO that was launched on Wed, 22 Apr 2020 UTC via an FALCON 9 launch vehicle from the Air Force Eastern Test Range (AFETR). Payload-class satellites include a variety of spacecraft equipped with specific instruments for various scientific and technological missions. These include communications satellites like Starlink; space stations such as the ISS; scientific satellites like the Hubble; Earth observation satellites from companies like Planet Labs, Umbra, and HawkEye 360; GPS; miniature CubeSats for education and research; and military/defense satellites.

Loading next visibility...
Identifier
45565, 2020-025AL
Orbit
LEO
Country
Flag of USUS
Related business
Manufacturer
SpaceX/Seattle
Mission
Partially operational Commercial Communications
Bus & Motor
STARLINK, Unknown motor
Mass
260 kg wet, ~248 kg dry
Launch date (UTC)
2020-04-22 (5 years ago)
Launch vehicle
FALCON 9
Launch site
Air Force Eastern Test Range (AFETR)
Object type
Payload
Rocket body
Debris
Shape & HBR
Box + 1 Pan, 4.4 m
Radar Cross Section
13.562 m², Large (>1 m²)

Expand to show TLE details & history
Last TLE update: 1 day ago

TLE from 1 day ago
0 STARLINK-1357
1 45565U 20025AL  25259.92535353  .00035810  00000-0  14353-2 0  9997
2 45565  53.0690 138.5528 0008839  95.3170 264.8835 15.24680472299291
Epoch: 2025-09-16T22:12Z
TLE epoch observation values (Epoch: 2025-09-16T22:12:30.544Z)
Latitude
-0.00012°
Longitude
169.31678°
Altitude
493.18 km
Speed
7.619 km/s
True Right ascension
09h 14m 12s
True Declination
0° 00' 00"
Sunlit
Object was in daylight at epoch
Visualization orbit readout
Latitude
Unknown
Longitude
Unknown
Altitude
Unknown
Speed
Unknown
Apparent Right ascension
Unknown
Apparent Declination
Unknown
Sunlit
N/A
Visualization observer readout
Local Sidereal Time
15:31:26
Azimuth
Unknown
Elevation
Unknown
Doppler factor
Unknown
Orbital elements
Apogee altitude
498.088 km
Perigee altitude
485.943 km
Semi-major axis
6,870.153 km
Eccentricity
0.00088
Inclination
53.069°
RAAN
138.5528°
Arg. of periapsis
95.317°
True anomaly
264.78263°
Mean anomaly
264.8835°
Eccentric anomaly
264.83306°
Mean motion
3.81148 °/min
Orbital period
94.45 mins
BSTAR
0.0014353
Loading maneuver chart data...
Computing Atmospheric mass density...
Loading historical data...
Loading historical data...
Loading historical data...
Loading historical data...
Loading historical data...
Loading historical data...
Loading historical data...

Documentation

Showing up to 5 results
|